DLH612 EDDF-UBBB

Flight info

Callsign DLH612
Flight time N/A
Altitude 31000
Route SULUS7S SULUS Z650 VEMUT/N0433F350 DCT DITIS DCT UBUXI DCT BEGLA/N0433F370 DCT DEGET DCT UDROS UN743 GAKSU UT310 SIN UN644 ROLIN DCT FOQUS DCT LAGAS DCT DISKA M737 VERCA M747 LUSAL N319 PENOB T447 INSAN
Aircraft A320/M-SDE2E3FGIJ1LORWXYZ/HB1

Departure

Time N/A
Airport Frankfurt Main Airport (EDDF)

Arrival

Time 2026-05-05 20:38
Airport Heydar Aliyev International Airport (UBBB)
Time Latitude Longitude Altitude Speed Heading
2026-05-05 19:32 41.88988 41.40530 35035 ft 459 kts 84°
2026-05-05 19:32 41.89484 41.44761 35036 ft 459 kts 84°
2026-05-05 19:33 41.90464 41.53236 35034 ft 459 kts 84°
2026-05-05 19:33 41.91442 41.61706 35021 ft 459 kts 84°
2026-05-05 19:34 41.92420 41.70198 35011 ft 460 kts 84°
2026-05-05 19:35 41.93892 41.83036 35406 ft 468 kts 84°
2026-05-05 19:35 41.94386 41.87361 35596 ft 469 kts 84°
2026-05-05 19:35 41.94878 41.91699 35788 ft 471 kts 84°
2026-05-05 19:35 41.95369 41.96061 35986 ft 472 kts 84°
2026-05-05 19:36 41.95857 42.00423 36167 ft 473 kts 84°
2026-05-05 19:36 41.96344 42.04796 36366 ft 474 kts 84°
2026-05-05 19:36 41.96833 42.09178 36571 ft 474 kts 84°
2026-05-05 19:36 41.97322 42.13564 36762 ft 475 kts 84°
2026-05-05 19:37 41.97809 42.17958 36968 ft 476 kts 84°
2026-05-05 19:37 41.98780 42.26770 37030 ft 483 kts 84°
2026-05-05 19:38 41.99757 42.35729 37030 ft 484 kts 84°
2026-05-05 19:38 42.00726 42.44694 37036 ft 485 kts 84°
2026-05-05 19:39 42.01695 42.53677 37027 ft 485 kts 84°
2026-05-05 19:39 42.02658 42.62654 37026 ft 485 kts 84°
2026-05-05 19:40 42.03611 42.71637 37034 ft 485 kts 84°
2026-05-05 19:40 42.04561 42.80608 37023 ft 485 kts 84°
2026-05-05 19:41 42.05489 42.89542 37012 ft 485 kts 85°
2026-05-05 19:41 42.05619 42.98531 37011 ft 478 kts 102°
2026-05-05 19:42 42.03630 43.06934 37011 ft 470 kts 120°
2026-05-05 19:42 42.00570 43.14706 37019 ft 470 kts 121°
2026-05-05 19:43 41.97514 43.22491 36998 ft 470 kts 121°
2026-05-05 19:43 41.94454 43.30262 37003 ft 471 kts 121°
2026-05-05 19:44 41.91660 43.38241 37004 ft 474 kts 115°
2026-05-05 19:44 41.89199 43.46455 36992 ft 475 kts 115°
2026-05-05 19:45 41.86780 43.54700 36992 ft 475 kts 115°
2026-05-05 19:45 41.84336 43.62931 37000 ft 475 kts 115°
2026-05-05 19:46 41.81873 43.71096 36990 ft 475 kts 115°
2026-05-05 19:46 41.79384 43.79303 36981 ft 475 kts 115°
2026-05-05 19:47 41.76896 43.87525 36985 ft 476 kts 115°
2026-05-05 19:47 41.74404 43.95748 36988 ft 476 kts 115°
2026-05-05 19:48 41.71904 44.03968 36993 ft 477 kts 116°
2026-05-05 19:48 41.69389 44.12190 36979 ft 477 kts 116°
2026-05-05 19:49 41.66860 44.20416 36987 ft 478 kts 116°
2026-05-05 19:49 41.64331 44.28636 36984 ft 478 kts 116°
2026-05-05 19:50 41.61795 44.36862 36980 ft 478 kts 116°
2026-05-05 19:50 41.59246 44.45077 36982 ft 479 kts 116°
2026-05-05 19:51 41.56696 44.53295 36986 ft 479 kts 116°
2026-05-05 19:51 41.54140 44.61514 36993 ft 479 kts 116°
2026-05-05 19:52 41.51577 44.69739 36999 ft 479 kts 117°
2026-05-05 19:52 41.49021 44.77898 36999 ft 479 kts 117°
2026-05-05 19:53 41.46442 44.86104 36992 ft 479 kts 117°
2026-05-05 19:53 41.43863 44.94303 36967 ft 479 kts 117°
2026-05-05 19:54 41.41265 45.02496 36967 ft 480 kts 117°
2026-05-05 19:54 41.38667 45.10687 36969 ft 480 kts 117°
2026-05-05 19:55 41.36064 45.18879 36976 ft 481 kts 117°
2026-05-05 19:55 41.33449 45.27071 36966 ft 481 kts 118°
2026-05-05 19:56 41.30822 45.35277 36961 ft 481 kts 118°
2026-05-05 19:56 41.28631 45.42090 36963 ft 482 kts 118°
2026-05-05 19:57 41.25994 45.50294 36964 ft 482 kts 118°
2026-05-05 19:57 41.23350 45.58490 36954 ft 482 kts 118°
2026-05-05 19:58 41.20726 45.66646 36965 ft 483 kts 117°
2026-05-05 19:58 41.18395 45.75056 36968 ft 486 kts 114°
2026-05-05 19:59 41.16277 45.83585 36955 ft 486 kts 114°
2026-05-05 19:59 41.14119 45.92087 36958 ft 486 kts 115°
2026-05-05 20:00 41.11875 46.00542 36955 ft 486 kts 115°
2026-05-05 20:00 41.09596 46.08981 36964 ft 486 kts 115°
2026-05-05 20:01 41.07322 46.17420 36960 ft 486 kts 115°
2026-05-05 20:01 41.05055 46.25865 36964 ft 487 kts 115°
2026-05-05 20:02 41.02786 46.34321 36968 ft 487 kts 115°
2026-05-05 20:02 41.00534 46.42789 36966 ft 487 kts 115°
2026-05-05 20:03 40.98311 46.51135 36905 ft 488 kts 116°
2026-05-05 20:03 40.97088 46.55552 35526 ft 500 kts 117°
2026-05-05 20:03 40.95881 46.59688 36361 ft 475 kts 117°
2026-05-05 20:04 40.93650 46.67949 36405 ft 483 kts 115°
2026-05-05 20:04 40.91480 46.76370 36389 ft 484 kts 115°
2026-05-05 20:05 40.89244 46.84773 36400 ft 484 kts 116°
2026-05-05 20:05 40.86945 46.93124 36406 ft 483 kts 116°
2026-05-05 20:06 40.84630 47.01457 36407 ft 483 kts 116°
2026-05-05 20:06 40.82323 47.09810 36407 ft 485 kts 116°
2026-05-05 20:07 40.80012 47.18170 36401 ft 485 kts 117°
2026-05-05 20:07 40.77687 47.26517 36407 ft 485 kts 117°
2026-05-05 20:08 40.75370 47.34799 36375 ft 484 kts 117°
2026-05-05 20:08 40.73024 47.43116 36398 ft 484 kts 117°
2026-05-05 20:09 40.70683 47.51435 36413 ft 484 kts 117°
2026-05-05 20:09 40.68343 47.59772 36417 ft 484 kts 117°
2026-05-05 20:10 40.65997 47.68079 36429 ft 484 kts 117°
2026-05-05 20:10 40.63631 47.76395 36428 ft 484 kts 117°
2026-05-05 20:11 40.61264 47.84696 36428 ft 484 kts 117°
2026-05-05 20:11 40.58733 47.92807 36427 ft 475 kts 127°
2026-05-05 20:11 40.56930 47.96392 36425 ft 464 kts 136°
2026-05-05 20:12 40.54766 47.99475 36429 ft 455 kts 144°
2026-05-05 20:12 40.50155 48.05214 36430 ft 456 kts 144°
2026-05-05 20:13 40.45915 48.11504 36424 ft 470 kts 130°
2026-05-05 20:13 40.42956 48.19236 36424 ft 479 kts 123°
2026-05-05 20:14 40.40109 48.27143 36427 ft 478 kts 123°
2026-05-05 20:14 40.37242 48.35024 36439 ft 478 kts 123°
2026-05-05 20:14 40.35811 48.38966 36583 ft 479 kts 123°
2026-05-05 20:15 40.34375 48.42914 36730 ft 481 kts 123°
2026-05-05 20:15 40.32935 48.46872 36918 ft 482 kts 123°
2026-05-05 20:15 40.31489 48.50844 36984 ft 484 kts 123°
2026-05-05 20:16 40.28589 48.58809 36985 ft 484 kts 123°
2026-05-05 20:16 40.27135 48.62795 36601 ft 486 kts 123°
2026-05-05 20:16 40.25685 48.66763 36164 ft 477 kts 124°
2026-05-05 20:16 40.24280 48.70623 35991 ft 463 kts 124°
2026-05-05 20:17 40.22905 48.74399 35625 ft 455 kts 124°
2026-05-05 20:17 40.21560 48.78071 35197 ft 450 kts 124°
2026-05-05 20:17 40.20210 48.81740 34745 ft 445 kts 124°
2026-05-05 20:17 40.18954 48.85448 34296 ft 448 kts 118°
2026-05-05 20:18 40.18139 48.89412 33831 ft 454 kts 110°
2026-05-05 20:18 40.17511 48.93434 33305 ft 450 kts 110°
2026-05-05 20:18 40.16890 48.97430 32772 ft 446 kts 110°
2026-05-05 20:18 40.16278 49.01387 32286 ft 442 kts 110°
2026-05-05 20:19 40.15671 49.05306 31818 ft 437 kts 110°
2026-05-05 20:19 40.15066 49.09200 31360 ft 433 kts 110°
2026-05-05 20:19 40.14475 49.12986 30920 ft 429 kts 110°
2026-05-05 20:19 40.13878 49.16793 30473 ft 425 kts 110°
2026-05-05 20:20 40.13282 49.20557 30040 ft 421 kts 110°
2026-05-05 20:20 40.12690 49.24283 29518 ft 417 kts 110°
2026-05-05 20:20 40.12102 49.27976 28978 ft 414 kts 110°
2026-05-05 20:20 40.11629 49.31691 28416 ft 418 kts 102°
2026-05-05 20:21 40.11686 49.35521 27880 ft 423 kts 93°
2026-05-05 20:21 40.11892 49.39347 27378 ft 421 kts 93°
2026-05-05 20:21 40.12099 49.43145 26872 ft 418 kts 93°
2026-05-05 20:21 40.12302 49.46923 26377 ft 416 kts 93°
2026-05-05 20:22 40.12498 49.50677 25897 ft 413 kts 93°
2026-05-05 20:22 40.12687 49.54409 25427 ft 411 kts 94°
2026-05-05 20:22 40.12875 49.58131 24958 ft 408 kts 94°
2026-05-05 20:22 40.13060 49.61830 24488 ft 406 kts 94°
2026-05-05 20:23 40.13243 49.65471 24302 ft 396 kts 94°
2026-05-05 20:23 40.13424 49.69005 24185 ft 384 kts 94°
2026-05-05 20:23 40.13472 49.72410 24062 ft 361 kts 107°
2026-05-05 20:23 40.12811 49.75397 23940 ft 328 kts 128°
2026-05-05 20:24 40.11585 49.77732 23759 ft 299 kts 146°
2026-05-05 20:24 40.10137 49.79575 23431 ft 294 kts 148°
2026-05-05 20:24 40.08670 49.81418 22997 ft 290 kts 148°
2026-05-05 20:24 40.07213 49.83248 22586 ft 290 kts 147°
2026-05-05 20:25 40.05919 49.85325 22105 ft 303 kts 130°
2026-05-05 20:25 40.04964 49.87800 21506 ft 306 kts 128°
2026-05-05 20:25 40.04038 49.90296 20932 ft 305 kts 127°
2026-05-05 20:25 40.03121 49.92781 20390 ft 303 kts 127°
2026-05-05 20:26 40.02206 49.95258 19866 ft 301 kts 126°
2026-05-05 20:26 40.01579 49.97921 19359 ft 316 kts 107°
2026-05-05 20:26 40.01349 50.00779 18841 ft 317 kts 105°
2026-05-05 20:26 40.01126 50.03632 18355 ft 315 kts 105°
2026-05-05 20:27 40.00901 50.06469 17807 ft 313 kts 105°
2026-05-05 20:27 40.00696 50.09258 17283 ft 314 kts 99°
2026-05-05 20:27 40.00968 50.12112 16800 ft 320 kts 81°
2026-05-05 20:27 40.01505 50.14919 16329 ft 318 kts 81°
2026-05-05 20:28 40.02038 50.17698 15891 ft 314 kts 81°
2026-05-05 20:28 40.02562 50.20440 15471 ft 310 kts 81°
2026-05-05 20:28 40.03158 50.23127 15046 ft 309 kts 69°
2026-05-05 20:28 40.04248 50.25532 14632 ft 307 kts 57°
2026-05-05 20:29 40.05431 50.27829 14221 ft 303 kts 57°
2026-05-05 20:29 40.06612 50.30091 13820 ft 299 kts 53°
2026-05-05 20:29 40.08190 50.31776 13388 ft 291 kts 18°
2026-05-05 20:29 40.10123 50.32098 12924 ft 276 kts 343°
2026-05-05 20:30 40.11758 50.31050 12599 ft 253 kts 312°
2026-05-05 20:30 40.13032 50.29527 12233 ft 246 kts 311°
2026-05-05 20:30 40.14292 50.28025 11793 ft 245 kts 312°
2026-05-05 20:30 40.15553 50.26530 11346 ft 244 kts 313°
2026-05-05 20:31 40.16797 50.25060 10899 ft 244 kts 313°
2026-05-05 20:31 40.18052 50.23574 10450 ft 243 kts 313°
2026-05-05 20:31 40.19309 50.22088 10007 ft 243 kts 314°
2026-05-05 20:31 40.20562 50.20606 9560 ft 242 kts 314°
2026-05-05 20:32 40.21769 50.19187 9443 ft 223 kts 314°
2026-05-05 20:32 40.22889 50.17870 9144 ft 214 kts 314°
2026-05-05 20:32 40.23982 50.16573 8696 ft 211 kts 313°
2026-05-05 20:32 40.25061 50.15289 8244 ft 208 kts 313°
2026-05-05 20:33 40.26144 50.14000 7796 ft 207 kts 313°
2026-05-05 20:33 40.27190 50.12756 7364 ft 205 kts 313°
2026-05-05 20:33 40.28243 50.11502 6937 ft 204 kts 314°
2026-05-05 20:33 40.29289 50.10255 6486 ft 203 kts 314°
2026-05-05 20:34 40.30329 50.09054 6078 ft 198 kts 320°
2026-05-05 20:34 40.31588 50.08354 5625 ft 197 kts 346°
2026-05-05 20:34 40.32904 50.07965 5175 ft 189 kts 346°
2026-05-05 20:34 40.34167 50.07588 4729 ft 183 kts 346°
2026-05-05 20:35 40.35405 50.07275 4255 ft 180 kts 349°
2026-05-05 20:35 40.36620 50.06935 3740 ft 175 kts 349°
2026-05-05 20:35 40.37784 50.06583 3221 ft 168 kts 349°
2026-05-05 20:35 40.38898 50.06238 2681 ft 161 kts 349°
2026-05-05 20:36 40.39966 50.05905 2150 ft 155 kts 350°
2026-05-05 20:36 40.40998 50.05583 1613 ft 151 kts 350°
2026-05-05 20:36 40.42007 50.05267 1068 ft 148 kts 349°
2026-05-05 20:36 40.43010 50.04955 568 ft 148 kts 347°
2026-05-05 20:37 40.43963 50.04645 361 ft 141 kts 345°
2026-05-05 20:37 40.44582 50.04434 231 ft 138 kts 346°
2026-05-05 20:37 40.45778 50.04074 32 ft 124 kts 347°
2026-05-05 20:37 40.46505 50.03848 1 ft 78 kts 346°
2026-05-05 20:38 40.46739 50.03776 -1 ft 1 kts 347°
2026-05-05 20:38 40.46774 50.03776 -2 ft 13 kts 22°
2026-05-05 20:38 40.46826 50.03939 0 ft 24 kts 76°
2026-05-05 20:38 40.46869 50.04161 0 ft 26 kts 75°
2026-05-05 20:39 40.46907 50.04389 0 ft 25 kts 80°
2026-05-05 20:39 40.46914 50.04612 0 ft 26 kts 88°
2026-05-05 20:39 40.46920 50.04842 -1 ft 25 kts 88°
2026-05-05 20:39 40.46911 50.05025 -1 ft 10 kts 139°
2026-05-05 20:40 40.46849 50.05042 -2 ft 9 kts 174°
2026-05-05 20:40 40.46789 50.05044 -2 ft 8 kts 178°
2026-05-05 20:40 40.46733 50.05046 -2 ft 8 kts 178°
2026-05-05 20:40 40.46700 50.05058 -2 ft 7 kts 158°
2026-05-05 20:41 40.46655 50.05082 -2 ft 3 kts 162°
2026-05-05 20:41 40.46654 50.05082 -2 ft 0 kts 162°